Date,TemperatureHighF,TemperatureAvgF,TemperatureLowF,DewpointHighF,DewpointAvgF,DewpointLowF,HumidityHigh,HumidityAvg,HumidityLow,PressureMaxIn,PressureMinIn,WindSpeedMaxMPH,WindSpeedAvgMPH,GustSpeedMaxMPH,PrecipitationSumIn
2013-4-1,43.7,34.7,28.6,21.5,16.8,11.4,62,48,38,29.23,28.94,11,2,11,0.00
2013-4-2,46.2,34.6,26.2,22.2,14.8,10.6,54,44,34,29.35,29.23,10,1,10,0.00
2013-4-3,48.0,35.8,25.9,26.0,16.3,11.5,57,45,37,29.50,29.35,7,2,7,0.00
2013-4-4,62.8,44.9,31.3,34.9,24.4,15.5,55,45,34,29.35,29.00,10,2,10,0.00
2013-4-5,46.6,39.7,33.6,28.0,24.9,18.0,71,55,45,29.29,29.06,10,3,10,0.00
2013-4-6,63.5,49.7,36.3,43.5,32.8,24.3,70,53,38,29.20,28.61,14,5,17,0.08
2013-4-7,61.2,49.0,39.7,45.9,36.5,28.4,76,62,46,29.03,28.61,12,3,12,0.00
2013-4-8,61.7,47.4,39.6,51.5,40.4,29.0,93,77,65,29.06,28.58,18,2,18,0.66
2013-4-9,45.1,40.7,38.7,44.3,39.5,37.1,98,96,86,29.09,28.91,11,5,11,0.25
2013-4-10,39.9,38.5,36.5,39.4,38.0,36.0,98,98,97,29.06,28.85,12,7,12,0.71
2013-4-11,41.7,40.2,36.9,41.2,39.7,36.3,98,98,98,28.97,28.61,11,3,11,0.49
2013-4-12,44.2,40.1,37.0,41.4,36.1,29.4,98,86,72,28.88,28.58,13,4,13,0.37
2013-4-13,44.4,38.8,35.2,30.0,27.6,25.3,75,64,52,29.06,28.88,13,3,13,0.37
2013-4-14,59.4,44.7,35.6,47.5,35.6,27.5,79,70,58,29.09,28.70,13,2,13,0.37
2013-4-15,65.7,56.1,45.1,54.4,47.4,38.7,85,73,58,29.06,28.70,19,4,19,0.37
2013-4-16,61.0,47.1,39.4,43.2,35.7,30.3,84,66,46,29.35,29.00,8,1,8,0.00
2013-4-17,47.3,42.8,40.6,46.1,37.1,30.6,97,81,59,29.38,28.85,10,4,10,1.62
2013-4-18,61.9,49.6,42.3,60.2,47.9,34.7,98,94,75,28.91,28.47,14,3,14,2.40
2013-4-19,42.1,38.4,34.7,34.7,29.5,24.7,77,70,62,28.97,28.50,17,5,17,2.11
2013-4-20,51.1,37.9,30.4,26.7,21.8,18.0,69,53,38,29.50,28.97,8,2,8,2.11
2013-4-21,54.9,43.5,33.6,33.5,25.7,20.9,62,50,40,29.59,29.38,11,2,11,2.11
2013-4-22,70.3,54.8,42.8,45.8,33.7,27.6,56,46,33,29.38,29.09,8,3,8,2.11
2013-4-23,56.8,48.1,38.5,47.6,39.9,33.4,88,74,47,29.09,28.97,6,2,6,2.11
2013-4-24,58.6,44.8,37.0,38.2,31.4,27.6,88,62,38,29.14,28.97,11,3,11,2.11
2013-4-25,57.2,48.7,41.0,38.2,31.3,27.7,70,52,38,29.38,29.06,12,3,12,0.00
2013-4-26,70.9,54.7,40.5,46.7,36.3,26.0,59,50,39,29.38,29.26,11,4,11,0.00
2013-4-27,71.6,59.2,47.8,48.6,42.7,37.9,78,56,36,29.35,29.09,8,2,8,0.00
2013-4-28,73.9,59.8,51.8,56.5,46.4,37.6,73,62,46,29.09,28.88,6,0,6,0.00
2013-4-29,72.5,62.6,53.2,56.1,51.4,46.9,86,68,51,28.97,28.79,10,2,10,0.00
2013-4-30,85.5,71.5,62.1,60.3,56.2,52.5,78,60,39,28.97,28.79,14,6,14,0.00